格洛纳斯-714 COSMOS 1519 [GLONASS]

导读 | 星芒AI

COSMOS 1519 是一颗俄罗斯 GLONASS 卫星,于 1984 年 12 月 20 日发射,用于全球导航卫星系统。该卫星属于 GLONASS-M 系列,设计用于提供高精度的定位、导航和时间同步服务。它运行在中地球轨道,轨道高度约 19,000 公里,周期约 11 小时。COSMOS 1519 在轨期间为俄罗斯及国际用户提供了关键的导航支持,是 GLONASS 系统的重要组成部分。

基本信息
目录编号:
14590
目录名称:
COSMOS 1519 (GLONASS)
国际标识:
1983-127A
轨道中心:
EARTH
卫星名称:
格洛纳斯-714
卫星全名:
格洛纳斯-714 COSMOS 1519 [GLONASS]
卫星状态:
在轨 (已飞行15280 天)
发射日期:
1983-12-29 UTC
国别 :
俄罗斯(独联体) (CIS)
星等 :
--
轨道信息
数据来源 国际轨道数据
星历时间: 2025-10-27T13:49:16+0800
2天前
查看轨道信息
半长轴: 25508.248km
偏心率: 0.0011965
轨道倾角: 66.517°
近地点辐角 191.012°
升交点赤经 336.741°
平近点角 175.021°
近地点: 19099.592km
远地点: 19160.634km
周期: 675.742分钟
每日圈数: 2.130992
详细信息
平衡模式:
三轴稳定
覆盖范围:
全球
运营商:
列舍特涅夫卫星信息系统
运营商所在国:
俄罗斯
制造商(研发单位):
列舍特涅夫卫星信息系统
制造商所在国:
俄罗斯
使用方式:
暂无
卫星简介
格洛纳斯(GLONASS )是苏联/俄罗斯研制卫星导航系统。标准配置为24颗卫星,其中18颗卫星就能保证该系统为俄罗斯境内用户提供全部服务。该卫星已退役。
2D轨道图
3D轨道图
轨道高度分析图
轨道倾角分析图
轨道综合分析图
查看轨道综合分析图